Wind_Speed
59 53 44 39 37 32 28 26 26 19 14 10 9 11 14 21 27 14 7 6 15 19 19 17 13 14 11 8 8 12 17 26
57 53 46 42 41 37 32 29 24 22 17 13 11 12 14 21 25 14 7 5 16 16 17 18 16 15 9 6 12 15 20 26
57 54 51 46 44 38 35 34 31 23 19 18 14 14 16 20 20 17 5 5 14 17 18 18 20 18 27 22 22 20 25 20
52 55 53 48 44 40 42 38 35 28 23 20 17 16 20 15 19 11 7 5 9 19 20 17 20 22 27 25 33 28 26 30
47 49 48 50 49 47 45 42 37 31 27 23 21 18 19 11 11 12 6 4 7 17 23 22 21 24 29 30 24 29 34 30
44 48 49 53 55 54 51 48 39 34 33 27 22 21 19 9 9 13 12 4 6 14 23 23 24 26 31 28 30 34 36 24
44 45 48 52 55 56 50 50 42 39 36 31 25 23 23 18 16 20 18 5 9 13 23 25 28 33 33 25 21 28 38 30
42 44 44 48 49 50 53 51 47 43 37 33 29 25 26 23 16 18 15 7 10 16 25 30 30 36 34 29 30 31 29 33
41 43 44 40 44 49 56 53 51 47 41 37 32 26 26 22 19 17 15 9 11 21 28 31 32 33 36 28 34 34 37 31
33 42 38 47 49 50 54 56 55 51 44 40 35 31 30 24 18 16 13 8 8 22 27 32 32 30 37 34 33 30 26 24
37 34 45 47 50 53 52 56 58 56 50 44 39 36 36 28 20 15 10 10 9 18 26 29 32 30 30 35 35 30 26 25
41 38 39 49 55 57 56 57 52 54 48 42 40 41 41 29 21 16 10 8 13 14 21 26 31 32 31 31 31 30 29 27
44 43 42 50 51 60 58 59 56 56 50 47 46 45 38 30 20 18 13 9 12 19 21 22 26 31 31 30 28 27 26 26
49 48 46 46 53 57 59 62 61 58 54 52 53 47 44 36 25 22 18 14 11 19 21 24 25 25 29 28 25 23 23 23
48 52 51 54 53 57 61 66 65 61 58 59 56 52 47 39 33 31 25 19 13 15 21 22 26 26 27 26 24 23 23 22
53 54 58 58 60 58 61 66 69 65 61 64 61 60 52 44 38 35 30 27 21 17 15 24 25 27 28 28 26 23 22 23
55 59 60 60 62 61 62 64 71 69 67 68 66 62 57 51 47 42 37 33 28 23 16 17 22 27 28 29 27 24 23 24
61 68 67 66 65 65 66 67 70 73 72 71 72 67 61 57 55 46 42 39 32 24 19 20 22 25 29 30 28 26 24 25
72 73 70 70 71 71 70 70 71 74 75 76 76 74 67 65 57 50 46 43 38 32 21 16 18 26 28 29 29 27 25 26
Wind_Direction
222 225 224 226 226 231 235 241 243 244 252 251 271 288 317 335 339 333 290 262 221 211 207 200 195 197 213 268 237 202 180 179
221 223 220 220 222 227 229 235 241 243 238 242 256 275 306 328 336 339 288 267 208 203 198 186 182 170 183 170 145 149 168 174
223 219 218 218 220 225 226 231 231 232 232 237 252 257 290 318 330 335 284 245 203 173 165 171 165 164 148 134 129 115 123 163
225 222 219 219 218 218 221 229 231 232 236 231 243 243 284 319 329 330 288 211 204 176 155 169 168 167 163 163 148 151 143 160
223 224 222 222 218 215 221 226 228 228 231 229 235 236 276 315 350 8 288 233 196 190 174 164 177 166 166 160 146 163 155 153
221 220 218 219 218 215 217 225 223 224 229 225 228 235 258 284 310 348 347 232 200 184 181 169 173 168 174 172 166 167 155 160
223 219 218 221 222 220 221 222 218 221 227 229 221 226 247 259 288 309 330 258 195 183 176 176 172 171 167 173 172 172 174 176
223 219 217 222 222 224 222 218 214 218 221 228 219 221 239 262 275 300 321 264 194 185 177 177 176 177 181 182 176 184 187 194
226 218 214 215 220 220 222 215 213 216 217 224 224 223 223 259 275 298 309 269 212 184 178 180 179 182 180 182 184 187 199 212
229 223 210 213 213 216 221 218 214 214 215 221 220 217 214 244 262 285 304 276 226 180 178 180 182 182 188 190 192 194 202 199
224 223 215 214 211 212 216 218 217 215 214 215 220 218 218 238 251 270 284 283 218 180 172 180 185 184 186 189 197 204 203 202
222 220 217 218 214 211 209 216 215 219 214 215 217 215 226 233 233 249 262 289 231 172 162 176 185 189 188 185 194 205 207 209
218 218 218 221 216 216 210 213 210 213 210 210 212 223 232 233 232 223 244 240 238 207 176 168 180 192 194 192 197 204 212 218
220 216 218 221 219 220 213 213 210 207 205 207 215 221 223 226 216 211 223 237 234 212 201 180 177 182 178 179 186 197 208 213
224 217 215 221 221 218 215 214 213 205 201 203 213 212 215 222 211 211 210 223 224 215 212 204 189 188 185 180 187 200 213 219
224 221 216 220 220 220 217 215 216 207 201 203 207 212 216 221 212 211 208 212 224 221 218 218 213 198 199 191 192 199 209 215
219 222 216 219 225 220 220 217 217 210 201 203 205 210 212 215 213 211 212 215 222 224 219 224 224 218 204 199 195 202 208 214
227 220 219 217 218 220 220 219 217 214 204 203 203 205 209 214 219 223 218 220 226 218 225 220 229 223 212 204 202 202 209 217
235 228 217 218 216 217 217 219 218 216 207 205 204 204 209 210 218 221 217 219 228 218 209 229 250 235 214 206 206 203 205 218
Height
10914 10924 10936 10942 10948 10951 10954 10957 10958 10961 10962 10962 10961 10958 10955 10953 10949 10943 10941 10939 10939 10941 10945 10948 10951 10955 10957 10956 10955 10957 10961 10967
10907 10915 10926 10931 10938 10943 10948 10950 10953 10956 10958 10959 10958 10956 10953 10951 10947 10942 10939 10938 10937 10939 10942 10945 10949 10954 10955 10956 10958 10960 10964 10970
10895 10906 10912 10920 10928 10937 10942 10942 10946 10951 10953 10955 10955 10954 10952 10950 10947 10941 10939 10938 10938 10938 10941 10944 10949 10953 10956 10959 10963 10966 10969 10975
10884 10894 10903 10913 10921 10927 10930 10935 10939 10946 10949 10950 10952 10952 10950 10948 10946 10941 10938 10938 10937 10938 10940 10944 10949 10952 10956 10961 10963 10969 10972 10978
10872 10884 10896 10902 10908 10915 10921 10926 10933 10940 10943 10945 10948 10949 10948 10947 10945 10942 10939 10937 10937 10937 10939 10944 10949 10952 10956 10963 10966 10972 10975 10980
10863 10870 10880 10888 10894 10902 10910 10916 10927 10933 10936 10940 10943 10946 10946 10945 10944 10942 10940 10937 10935 10935 10937 10943 10949 10952 10958 10963 10968 10973 10976 10982
10852 10861 10870 10877 10886 10895 10905 10909 10920 10924 10929 10934 10939 10941 10942 10943 10943 10942 10940 10937 10935 10934 10936 10943 10948 10951 10958 10964 10970 10975 10978 10981
10844 10851 10861 10869 10879 10889 10893 10902 10909 10915 10924 10928 10933 10936 10940 10940 10941 10941 10940 10937 10935 10933 10935 10942 10949 10952 10957 10964 10969 10974 10979 10982
10836 10844 10852 10863 10869 10877 10880 10892 10899 10906 10917 10923 10929 10933 10937 10939 10939 10940 10940 10938 10934 10932 10934 10941 10948 10953 10956 10961 10968 10974 10978 10981
10830 10836 10847 10845 10854 10865 10873 10882 10891 10900 10909 10917 10923 10928 10930 10933 10936 10938 10940 10938 10935 10931 10934 10939 10947 10952 10956 10960 10967 10972 10976 10979
10824 10829 10834 10838 10845 10852 10863 10872 10882 10891 10900 10908 10916 10922 10924 10929 10932 10936 10939 10938 10937 10932 10932 10938 10944 10949 10953 10958 10965 10971 10974 10978
10814 10822 10828 10826 10833 10840 10850 10860 10879 10888 10898 10905 10912 10915 10918 10924 10928 10933 10937 10938 10939 10937 10933 10936 10941 10946 10951 10956 10962 10968 10972 10975
10802 10810 10814 10816 10827 10828 10843 10850 10863 10874 10890 10896 10900 10905 10915 10921 10926 10929 10933 10936 10938 10939 10937 10936 10938 10943 10948 10953 10958 10963 10968 10971
10789 10799 10807 10810 10814 10823 10834 10838 10848 10862 10876 10886 10891 10899 10906 10913 10920 10924 10928 10932 10934 10937 10939 10936 10937 10941 10944 10948 10953 10958 10963 10966
10779 10787 10792 10796 10803 10809 10819 10826 10836 10850 10863 10872 10882 10891 10899 10907 10913 10915 10921 10927 10930 10932 10936 10938 10936 10938 10941 10944 10949 10954 10958 10961
10764 10772 10776 10780 10787 10797 10805 10814 10823 10838 10852 10860 10869 10879 10890 10899 10906 10911 10915 10920 10925 10928 10930 10934 10936 10936 10938 10939 10943 10948 10952 10956
10749 10753 10761 10768 10774 10786 10792 10801 10808 10825 10839 10847 10857 10869 10880 10889 10897 10903 10908 10914 10918 10923 10925 10929 10932 10934 10935 10936 10938 10943 10946 10950
10723 10726 10738 10749 10758 10767 10777 10785 10794 10808 10824 10834 10846 10857 10867 10878 10887 10896 10901 10907 10913 10918 10920 10923 10926 10929 10930 10931 10933 10937 10941 10945
10694 10703 10719 10730 10737 10747 10759 10768 10779 10790 10809 10821 10833 10846 10854 10866 10878 10887 10894 10899 10905 10910 10915 10919 10921 10924 10925 10926 10928 10932 10935 10940